Time,TemperatureF,DewpointF,PressureIn,WindDirection,WindDirectionDegrees,WindSpeedMPH,WindSpeedGustMPH,Humidity,HourlyPrecipIn,Conditions,Clouds,dailyrainin,SolarRadiationWatts/m^2,SoftwareType,DateUTC
2013-04-20 00:02:00,74.0,61.0,-100.00,East,87,2.0,5.0,64,0.00,,,0.00,0.000000,,2013-04-20 10:02:00,
2013-04-20 00:12:00,74.0,61.0,-100.00,East,87,2.0,5.0,64,0.00,,,0.00,0.000000,,2013-04-20 10:12:00,
2013-04-20 00:22:00,73.0,61.0,-100.00,East,84,2.0,5.0,65,0.00,,,0.00,0.000000,,2013-04-20 10:22:00,
2013-04-20 00:42:00,73.0,61.0,-100.00,East,84,2.0,5.0,65,0.00,,,0.00,0.000000,,2013-04-20 10:42:00,
2013-04-20 00:53:00,73.0,61.0,-100.00,East,84,2.0,5.0,65,0.00,,,0.00,0.000000,,2013-04-20 10:53:00,
2013-04-20 01:02:00,73.0,61.0,-100.00,East,84,2.0,5.0,65,0.00,,,0.00,0.000000,,2013-04-20 11:02:00,
2013-04-20 01:12:00,73.0,61.0,-100.00,East,84,2.0,5.0,65,0.00,,,0.00,0.000000,,2013-04-20 11:12:00,
2013-04-20 01:22:00,72.0,59.0,-100.00,East,79,3.0,6.0,64,0.00,,,0.00,0.000000,,2013-04-20 11:22:00,
2013-04-20 01:42:00,72.0,59.0,-100.00,East,79,3.0,6.0,64,0.00,,,0.00,0.000000,,2013-04-20 11:42:00,
2013-04-20 01:52:00,72.0,59.0,-100.00,East,79,3.0,6.0,64,0.00,,,0.00,0.000000,,2013-04-20 11:52:00,
2013-04-20 02:02:00,72.0,59.0,-100.00,East,79,3.0,6.0,64,0.00,,,0.00,0.000000,,2013-04-20 12:02:00,
2013-04-20 02:11:00,72.0,59.0,-100.00,East,79,3.0,6.0,64,0.00,,,0.00,0.000000,,2013-04-20 12:11:00,
2013-04-20 02:42:00,71.0,59.0,-100.00,ENE,74,4.0,9.0,66,0.00,,,0.00,0.000000,,2013-04-20 12:42:00,
2013-04-20 02:52:00,71.0,59.0,-100.00,ENE,74,4.0,9.0,66,0.00,,,0.00,0.000000,,2013-04-20 12:52:00,
2013-04-20 03:02:00,71.0,59.0,-100.00,ENE,74,4.0,9.0,66,0.00,,,0.00,0.000000,,2013-04-20 13:02:00,
2013-04-20 03:11:00,71.0,59.0,-100.00,ENE,74,4.0,9.0,66,0.00,,,0.00,0.000000,,2013-04-20 13:11:00,
2013-04-20 03:21:00,71.0,59.0,-100.00,ENE,74,4.0,9.0,66,0.00,,,0.00,0.000000,,2013-04-20 13:21:00,
2013-04-20 03:42:00,70.0,57.0,-100.00,ENE,76,4.0,8.0,63,0.00,,,0.00,0.000000,,2013-04-20 13:42:00,
2013-04-20 03:52:00,70.0,57.0,-100.00,ENE,76,4.0,8.0,63,0.00,,,0.00,0.000000,,2013-04-20 13:52:00,
2013-04-20 04:02:00,70.0,57.0,-100.00,ENE,76,4.0,8.0,63,0.00,,,0.00,0.000000,,2013-04-20 14:02:00,
2013-04-20 04:11:00,70.0,57.0,-100.00,ENE,76,4.0,8.0,63,0.00,,,0.00,0.000000,,2013-04-20 14:11:00,
2013-04-20 04:21:00,70.0,57.0,-100.00,ENE,76,4.0,8.0,63,0.00,,,0.00,0.000000,,2013-04-20 14:21:00,
2013-04-20 04:42:00,70.0,55.0,-100.00,East,81,3.0,8.0,58,0.00,,,0.00,0.000000,,2013-04-20 14:42:00,
2013-04-20 04:52:00,70.0,55.0,-100.00,East,81,3.0,8.0,58,0.00,,,0.00,0.000000,,2013-04-20 14:52:00,
2013-04-20 05:01:00,70.0,55.0,-100.00,East,81,3.0,8.0,58,0.00,,,0.00,0.000000,,2013-04-20 15:01:00,
2013-04-20 05:11:00,70.0,55.0,-100.00,East,81,3.0,8.0,58,0.00,,,0.00,0.000000,,2013-04-20 15:11:00,
2013-04-20 05:21:00,70.0,55.0,-100.00,East,81,3.0,8.0,58,0.00,,,0.00,0.000000,,2013-04-20 15:21:00,
2013-04-20 05:22:00,70.0,57.0,-100.00,East,80,3.0,7.0,64,0.00,,,0.00,0.000000,,2013-04-20 15:22:00,
2013-04-20 05:43:00,70.0,57.0,-100.00,East,80,3.0,7.0,64,0.00,,,0.00,0.000000,,2013-04-20 15:43:00,
2013-04-20 05:53:00,70.0,57.0,-100.00,East,80,3.0,7.0,64,0.00,,,0.00,0.000000,,2013-04-20 15:53:00,
2013-04-20 06:03:00,70.0,57.0,-100.00,East,80,3.0,7.0,64,0.00,,,0.00,0.000000,,2013-04-20 16:03:00,
2013-04-20 06:12:00,70.0,57.0,-100.00,East,80,3.0,7.0,64,0.00,,,0.00,0.000000,,2013-04-20 16:12:00,
2013-04-20 06:22:00,69.0,56.0,-100.00,East,79,3.0,7.0,64,0.00,,,0.00,0.000000,,2013-04-20 16:22:00,
2013-04-20 06:42:00,69.0,56.0,-100.00,East,79,3.0,7.0,64,0.00,,,0.00,0.000000,,2013-04-20 16:42:00,
2013-04-20 06:53:00,69.0,56.0,-100.00,East,79,3.0,7.0,64,0.00,,,0.00,0.000000,,2013-04-20 16:53:00,
2013-04-20 07:02:00,69.0,56.0,-100.00,East,79,3.0,7.0,64,0.00,,,0.00,0.000000,,2013-04-20 17:02:00,
2013-04-20 07:11:00,69.0,56.0,-100.00,East,79,3.0,7.0,64,0.00,,,0.00,0.000000,,2013-04-20 17:11:00,
2013-04-20 07:22:00,70.0,55.0,-100.00,ENE,75,4.0,7.0,58,0.00,,,0.00,47.000000,,2013-04-20 17:22:00,
2013-04-20 07:42:00,70.0,55.0,-100.00,ENE,75,4.0,7.0,58,0.00,,,0.00,47.000000,,2013-04-20 17:42:00,
2013-04-20 07:52:00,70.0,55.0,-100.00,ENE,75,4.0,7.0,58,0.00,,,0.00,47.000000,,2013-04-20 17:52:00,
2013-04-20 08:02:00,70.0,55.0,-100.00,ENE,75,4.0,7.0,58,0.00,,,0.00,47.000000,,2013-04-20 18:02:00,
2013-04-20 08:12:00,70.0,55.0,-100.00,ENE,75,4.0,7.0,58,0.00,,,0.00,47.000000,,2013-04-20 18:12:00,
2013-04-20 08:42:00,76.0,61.0,-100.00,ENE,71,3.0,7.0,59,0.00,,,0.00,246.000000,,2013-04-20 18:42:00,
2013-04-20 08:52:00,76.0,61.0,-100.00,ENE,71,3.0,7.0,59,0.00,,,0.00,246.000000,,2013-04-20 18:52:00,
2013-04-20 09:01:00,76.0,61.0,-100.00,ENE,71,3.0,7.0,59,0.00,,,0.00,246.000000,,2013-04-20 19:01:00,
2013-04-20 09:11:00,76.0,61.0,-100.00,ENE,71,3.0,7.0,59,0.00,,,0.00,246.000000,,2013-04-20 19:11:00,
2013-04-20 09:21:00,76.0,61.0,-100.00,ENE,71,3.0,7.0,59,0.00,,,0.00,246.000000,,2013-04-20 19:21:00,
2013-04-20 09:42:00,78.0,65.0,-100.00,WSW,254,2.0,6.0,65,0.00,,,0.00,326.000000,,2013-04-20 19:42:00,
2013-04-20 09:52:00,78.0,65.0,-100.00,WSW,254,2.0,6.0,65,0.00,,,0.00,326.000000,,2013-04-20 19:52:00,
2013-04-20 10:02:00,78.0,65.0,-100.00,WSW,254,2.0,6.0,65,0.00,,,0.00,326.000000,,2013-04-20 20:02:00,
2013-04-20 10:11:00,78.0,65.0,-100.00,WSW,254,2.0,6.0,65,0.00,,,0.00,326.000000,,2013-04-20 20:11:00,
2013-04-20 10:21:00,78.0,65.0,-100.00,WSW,254,2.0,6.0,65,0.00,,,0.00,326.000000,,2013-04-20 20:21:00,
2013-04-20 10:42:00,79.0,64.0,-100.00,WSW,258,3.0,8.0,61,0.00,,,0.00,652.000000,,2013-04-20 20:42:00,
2013-04-20 10:52:00,79.0,64.0,-100.00,WSW,258,3.0,8.0,61,0.00,,,0.00,652.000000,,2013-04-20 20:52:00,
2013-04-20 11:01:00,79.0,64.0,-100.00,WSW,258,3.0,8.0,61,0.00,,,0.00,652.000000,,2013-04-20 21:01:00,
2013-04-20 11:12:00,79.0,64.0,-100.00,WSW,258,3.0,8.0,61,0.00,,,0.00,652.000000,,2013-04-20 21:12:00,
2013-04-20 11:21:00,79.0,64.0,-100.00,WSW,258,3.0,8.0,61,0.00,,,0.00,652.000000,,2013-04-20 21:21:00,
2013-04-20 11:22:00,80.0,63.0,-100.00,WSW,242,4.0,8.0,56,0.00,,,0.00,850.000000,,2013-04-20 21:22:00,
2013-04-20 11:43:00,80.0,63.0,-100.00,WSW,242,4.0,8.0,56,0.00,,,0.00,850.000000,,2013-04-20 21:43:00,
2013-04-20 11:53:00,80.0,63.0,-100.00,WSW,242,4.0,8.0,56,0.00,,,0.00,850.000000,,2013-04-20 21:53:00,
2013-04-20 12:02:00,80.0,63.0,-100.00,WSW,242,4.0,8.0,56,0.00,,,0.00,850.000000,,2013-04-20 22:02:00,
2013-04-20 12:12:00,80.0,63.0,-100.00,WSW,242,4.0,8.0,56,0.00,,,0.00,850.000000,,2013-04-20 22:12:00,
2013-04-20 12:22:00,81.0,64.0,-100.00,West,266,4.0,10.0,56,0.00,,,0.00,945.000000,,2013-04-20 22:22:00,
2013-04-20 12:42:00,81.0,64.0,-100.00,West,266,4.0,10.0,56,0.00,,,0.00,945.000000,,2013-04-20 22:42:00,
2013-04-20 12:52:00,81.0,64.0,-100.00,West,266,4.0,10.0,56,0.00,,,0.00,945.000000,,2013-04-20 22:52:00,
2013-04-20 13:02:00,81.0,64.0,-100.00,West,266,4.0,10.0,56,0.00,,,0.00,945.000000,,2013-04-20 23:02:00,
2013-04-20 13:11:00,81.0,64.0,-100.00,West,266,4.0,10.0,56,0.00,,,0.00,945.000000,,2013-04-20 23:11:00,
2013-04-20 13:42:00,81.0,64.0,-100.00,West,263,5.0,9.0,57,0.00,,,0.00,975.000000,,2013-04-20 23:42:00,
2013-04-20 13:52:00,81.0,64.0,-100.00,West,263,5.0,9.0,57,0.00,,,0.00,975.000000,,2013-04-20 23:52:00,
2013-04-20 14:01:00,81.0,64.0,-100.00,West,263,5.0,9.0,57,0.00,,,0.00,975.000000,,2013-04-21 00:01:00,
2013-04-20 14:11:00,81.0,64.0,-100.00,West,263,5.0,9.0,57,0.00,,,0.00,975.000000,,2013-04-21 00:11:00,
2013-04-20 14:21:00,81.0,64.0,-100.00,West,263,5.0,9.0,57,0.00,,,0.00,975.000000,,2013-04-21 00:21:00,
2013-04-20 14:42:00,82.0,65.0,-100.00,West,272,5.0,10.0,56,0.00,,,0.00,910.000000,,2013-04-21 00:42:00,
2013-04-20 14:52:00,82.0,65.0,-100.00,West,272,5.0,10.0,56,0.00,,,0.00,910.000000,,2013-04-21 00:52:00,
2013-04-20 15:01:00,82.0,65.0,-100.00,West,272,5.0,10.0,56,0.00,,,0.00,910.000000,,2013-04-21 01:01:00,
2013-04-20 15:11:00,82.0,65.0,-100.00,West,272,5.0,10.0,56,0.00,,,0.00,910.000000,,2013-04-21 01:11:00,
2013-04-20 15:21:00,82.0,65.0,-100.00,West,272,5.0,10.0,56,0.00,,,0.00,910.000000,,2013-04-21 01:21:00,
2013-04-20 15:42:00,82.0,65.0,-100.00,West,271,5.0,10.0,56,0.00,,,0.00,806.000000,,2013-04-21 01:42:00,
2013-04-20 15:52:00,82.0,65.0,-100.00,West,271,5.0,10.0,56,0.00,,,0.00,806.000000,,2013-04-21 01:52:00,
2013-04-20 16:01:00,82.0,65.0,-100.00,West,271,5.0,10.0,56,0.00,,,0.00,806.000000,,2013-04-21 02:01:00,
2013-04-20 16:11:00,82.0,65.0,-100.00,West,271,5.0,10.0,56,0.00,,,0.00,806.000000,,2013-04-21 02:11:00,
2013-04-20 16:21:00,82.0,65.0,-100.00,West,271,5.0,10.0,56,0.00,,,0.00,806.000000,,2013-04-21 02:21:00,
2013-04-20 16:42:00,82.0,65.0,-100.00,West,274,5.0,10.0,57,0.00,,,0.00,577.000000,,2013-04-21 02:42:00,
2013-04-20 16:52:00,82.0,65.0,-100.00,West,274,5.0,10.0,57,0.00,,,0.00,577.000000,,2013-04-21 02:52:00,
2013-04-20 17:01:00,82.0,65.0,-100.00,West,274,5.0,10.0,57,0.00,,,0.00,577.000000,,2013-04-21 03:01:00,
2013-04-20 17:11:00,82.0,65.0,-100.00,West,274,5.0,10.0,57,0.00,,,0.00,577.000000,,2013-04-21 03:11:00,
2013-04-20 17:21:00,82.0,65.0,-100.00,West,274,5.0,10.0,57,0.00,,,0.00,577.000000,,2013-04-21 03:21:00,
2013-04-20 17:22:00,81.0,62.0,-100.00,West,280,4.0,9.0,52,0.00,,,0.00,304.000000,,2013-04-21 03:22:00,
2013-04-20 17:42:00,81.0,62.0,-100.00,West,280,4.0,9.0,52,0.00,,,0.00,304.000000,,2013-04-21 03:42:00,
2013-04-20 17:52:00,81.0,62.0,-100.00,West,280,4.0,9.0,52,0.00,,,0.00,304.000000,,2013-04-21 03:52:00,
2013-04-20 18:02:00,81.0,62.0,-100.00,West,280,4.0,9.0,52,0.00,,,0.00,304.000000,,2013-04-21 04:02:00,
2013-04-20 18:12:00,81.0,62.0,-100.00,West,280,4.0,9.0,52,0.00,,,0.00,304.000000,,2013-04-21 04:12:00,
2013-04-20 18:42:00,80.0,63.0,-100.00,WNW,298,4.0,10.0,57,0.00,,,0.00,195.000000,,2013-04-21 04:42:00,
2013-04-20 18:53:00,80.0,63.0,-100.00,WNW,298,4.0,10.0,57,0.00,,,0.00,195.000000,,2013-04-21 04:53:00,
2013-04-20 19:02:00,80.0,63.0,-100.00,WNW,298,4.0,10.0,57,0.00,,,0.00,195.000000,,2013-04-21 05:02:00,
2013-04-20 19:12:00,80.0,63.0,-100.00,WNW,298,4.0,10.0,57,0.00,,,0.00,195.000000,,2013-04-21 05:12:00,
2013-04-20 19:21:00,80.0,63.0,-100.00,WNW,298,4.0,10.0,57,0.00,,,0.00,195.000000,,2013-04-21 05:21:00,
2013-04-20 19:43:00,77.0,62.0,-100.00,NW,319,4.0,8.0,59,0.00,,,0.00,28.000000,,2013-04-21 05:43:00,
2013-04-20 19:52:00,77.0,62.0,-100.00,NW,319,4.0,8.0,59,0.00,,,0.00,28.000000,,2013-04-21 05:52:00,
2013-04-20 20:01:00,77.0,62.0,-100.00,NW,319,4.0,8.0,59,0.00,,,0.00,28.000000,,2013-04-21 06:01:00,
2013-04-20 20:12:00,77.0,62.0,-100.00,NW,319,4.0,8.0,59,0.00,,,0.00,28.000000,,2013-04-21 06:12:00,
2013-04-20 20:21:00,77.0,62.0,-100.00,NW,319,4.0,8.0,59,0.00,,,0.00,28.000000,,2013-04-21 06:21:00,
2013-04-20 20:42:00,77.0,62.0,-100.00,NNW,337,4.0,10.0,60,0.00,,,0.00,0.000000,,2013-04-21 06:42:00,
2013-04-20 20:52:00,77.0,62.0,-100.00,NNW,337,4.0,10.0,60,0.00,,,0.00,0.000000,,2013-04-21 06:52:00,
2013-04-20 21:01:00,77.0,62.0,-100.00,NNW,337,4.0,10.0,60,0.00,,,0.00,0.000000,,2013-04-21 07:01:00,
2013-04-20 21:11:00,77.0,62.0,-100.00,NNW,337,4.0,10.0,60,0.00,,,0.00,0.000000,,2013-04-21 07:11:00,
2013-04-20 21:21:00,77.0,62.0,-100.00,NNW,337,4.0,10.0,60,0.00,,,0.00,0.000000,,2013-04-21 07:21:00,
2013-04-20 21:42:00,76.0,62.0,-100.00,NNW,345,3.0,9.0,61,0.00,,,0.00,0.000000,,2013-04-21 07:42:00,
2013-04-20 21:52:00,76.0,62.0,-100.00,NNW,345,3.0,9.0,61,0.00,,,0.00,0.000000,,2013-04-21 07:52:00,
2013-04-20 22:01:00,76.0,62.0,-100.00,NNW,345,3.0,9.0,61,0.00,,,0.00,0.000000,,2013-04-21 08:01:00,
2013-04-20 22:11:00,76.0,62.0,-100.00,NNW,345,3.0,9.0,61,0.00,,,0.00,0.000000,,2013-04-21 08:11:00,
2013-04-20 22:21:00,76.0,62.0,-100.00,NNW,345,3.0,9.0,61,0.00,,,0.00,0.000000,,2013-04-21 08:21:00,
2013-04-20 22:42:00,75.0,62.0,-100.00,NNE,15,3.0,8.0,64,0.00,,,0.00,0.000000,,2013-04-21 08:42:00,
2013-04-20 22:52:00,75.0,62.0,-100.00,NNE,15,3.0,8.0,64,0.00,,,0.00,0.000000,,2013-04-21 08:52:00,
2013-04-20 23:01:00,75.0,62.0,-100.00,NNE,15,3.0,8.0,64,0.00,,,0.00,0.000000,,2013-04-21 09:01:00,
2013-04-20 23:11:00,75.0,62.0,-100.00,NNE,15,3.0,8.0,64,0.00,,,0.00,0.000000,,2013-04-21 09:11:00,
2013-04-20 23:21:00,75.0,62.0,-100.00,NNE,15,3.0,8.0,64,0.00,,,0.00,0.000000,,2013-04-21 09:21:00,
2013-04-20 23:22:00,74.0,60.0,-100.00,ENE,64,2.0,7.0,62,0.00,,,0.00,0.000000,,2013-04-21 09:22:00,
2013-04-20 23:43:00,74.0,60.0,-100.00,ENE,64,2.0,7.0,62,0.00,,,0.00,0.000000,,2013-04-21 09:43:00,
2013-04-20 23:53:00,74.0,60.0,-100.00,ENE,64,2.0,7.0,62,0.00,,,0.00,0.000000,,2013-04-21 09:53:00,